Simultaneous Nadir Overpasses (SNOs) Predictions

Prediction of SNOs between METOP-B and NOAA-19 Satellite Orbit:

Table of predicted SNOs for the next 14.0 days since TLE Epoch: 9/13/2013
Index Date (METOP-B) Time (METOP-B) Lat,Lon (METOP-B) SZA (METOP-B ) Date (NOAA-19) Time (NOAA-19) Lat,Lon (NOAA-19) SZA (NOAA-19 ) Distance(km) Time Diff (sec)
1 09/22/2013 13:34:25 73.81, -29.08 73.64 09/22/2013 13:33:14 73.84, -30.55 73.71 45.83 71
2 09/22/2013 14:25:13 -73.49, 137.50 106.66 09/22/2013 14:24:03 -73.50, 137.53 106.64 1.82 70
3 09/22/2013 15:15:53 73.49, -55.16 73.36 09/22/2013 15:15:11 73.48, -55.20 73.35 1.63 42
4 09/22/2013 16:06:35 -73.47, 112.11 106.65 09/22/2013 16:06:07 -73.48, 112.06 106.63 2.60 28
5 09/22/2013 16:57:16 73.42, -80.67 73.32 09/22/2013 16:57:14 73.41, -80.56 73.31 3.45 2
6 09/22/2013 17:47:57 -73.45, 86.72 106.65 09/22/2013 17:48:10 -73.42, 86.70 106.68 3.29 13
7 09/22/2013 18:38:38 73.40,-106.05 73.32 09/22/2013 18:39:18 73.39,-106.04 73.32 0.66 40
8 09/22/2013 19:29:20 -73.37, 61.22 106.69 09/22/2013 19:30:14 -73.40, 61.22 106.67 2.76 54
9 09/22/2013 20:20:06 73.07,-132.11 73.05 09/22/2013 20:21:17 73.13,-130.95 73.07 37.99 71




NCC Satellite Simultaneous Nadir Overpasses (SNOs) Prediction Service
